Waarnemingen

Advertentie
Mijn weer
Junsele, Zweden (2244): temperatuur & dauwpunt: 17.07.2018 07:00:00 - 23.07.2018 07:00:00 (CEST)Junsele, Zweden (2244): windsnelheid & windstoten: 17.07.2018 07:00:00 - 23.07.2018 07:00:00 (CEST)Junsele, Zweden (2244): windrichting: 17.07.2018 07:00:00 - 23.07.2018 07:00:00 (CEST)Junsele, Zweden (2244): luchtdruk: 17.07.2018 07:00:00 - 23.07.2018 07:00:00 (CEST)Junsele, Zweden (2244): zicht: 17.07.2018 07:00:00 - 23.07.2018 07:00:00 (CEST)Junsele, Zweden (2244): neerslag: 17.07.2018 07:00:00 - 23.07.2018 07:00:00 (CEST)
Datum & Tijd tt [°C] td [°C] ff [km/u] ff [kn] fx [km/u] fx [kn] dd ppp [hPa] vv [km] rr [mm]
23.07.2018 07:00:00 18,3 17,3 1 1 5 3 O 1006,6 14 0,0
23.07.2018 06:00:00 15,1 15,1 3 2 5 3 NO 1006,5 6 0,0
23.07.2018 05:00:00 13,0 13,0 3 2 5 3 NO 1006,5 2,1 0,0
23.07.2018 04:00:00 13,7 13,7 2 1 7 4 O 1006,1 6 0,0
23.07.2018 03:00:00 12,7 12,7 2 1 6 3 NO 1006,2 0,5 0,0
23.07.2018 02:00:00 13,1 13,1 5 3 8 4 NO 1006,1 4,2 0,0
23.07.2018 01:00:00 13,7 13,7 2 1 3 2 NO 1006,1 1,9 0,0
23.07.2018 00:00:00 14,6 14,6 1 1 5 3 N 1005,8 0,5 0,0
22.07.2018 23:00:00 15,7 15,7 2 1 6 3 O 1005,5 1,8 0,0
22.07.2018 22:00:00 16,8 16,6 3 2 8 5 NNO 1005,1 1,5 0,0
22.07.2018 21:00:00 18,4 18,1 2 1 12 6 Z 1004,3 10 0,0
22.07.2018 20:00:00 19,6 19,1 3 1 11 6 Z 1004,2 15 0,0
22.07.2018 19:00:00 19,4 18,9 4 2 14 7 ONO 1004,8 16 1,9
22.07.2018 18:00:00 20,2 19,7 4 2 14 7 ZZO 1004,1 25 1,7
22.07.2018 17:00:00 19,2 18,2 4 2 16 9 Z 1003,7 18 0,1
22.07.2018 16:00:00 19,2 18,7 9 5 18 10 ZO 1003,4 15 0,1
22.07.2018 15:00:00 18,3 18,3 4 2 11 6 ZZW 1003,3 14 1,8
22.07.2018 14:00:00 17,1 16,9 9 5 59 32 ZW 1003,5 1,3 17,2
22.07.2018 13:00:00 24,8 15,1 4 2 22 12 NW 1002,4 44 0,0
22.07.2018 12:00:00 24,4 15,6 9 5 20 11 W 1002,5 36 0,0
22.07.2018 11:00:00 24,8 15,4 9 5 16 9 ZW 1002,7 28 0,0
22.07.2018 10:00:00 22,4 14,8 4 2 10 5 W 1003,1 46 0,0
22.07.2018 09:00:00 20,9 15,2 4 2 16 9 WNW 1003,3 45 0,0
22.07.2018 08:00:00 19,0 15,5 5 3 13 7 WNW 1003,9 30 0,0
22.07.2018 07:00:00 18,2 15,6 5 3 13 7 W 1003,7 31 0,0
22.07.2018 06:00:00 16,2 15,4 3 2 8 4 W 1003,7 19 0,0
22.07.2018 05:00:00 15,9 14,8 3 1 6 4 WZW 1003,8 21 0,0
22.07.2018 04:00:00 16,2 14,7 3 2 13 7 W 1003,9 27 0,0
22.07.2018 03:00:00 16,4 14,4 4 2 14 8 WZW 1004,1 28 0,0
22.07.2018 02:00:00 16,9 14,0 5 3 14 8 W 1004,0 39 0,0
22.07.2018 01:00:00 17,5 14,0 4 2 21 12 WNW 1004,1 37 0,0
22.07.2018 00:00:00 18,9 14,2 10 5 18 10 W 1004,1 40 0,0
21.07.2018 23:00:00 19,9 14,0 5 3 15 8 W 1004,1 35 0,0
21.07.2018 22:00:00 20,9 14,5 5 3 14 8 W 1003,9 33 0,1
21.07.2018 21:00:00 20,4 16,6 3 1 11 6 W 1003,8 17 0,0
21.07.2018 20:00:00 22,2 14,1 5 3 12 6 W 1003,7 41 0,0
21.07.2018 19:00:00 23,3 14,8 3 2 6 4 WZW 1003,8 46 0,0
21.07.2018 18:00:00 24,3 14,7 3 2 8 5 ZZO 1003,8 41 0,0
21.07.2018 17:00:00 25,2 13,4 4 2 13 7 ZW 1003,9 35 0,0
21.07.2018 16:00:00 26,3 13,8 3 2 13 7 WZW 1004,1 34 0,0
21.07.2018 15:00:00 27,3 12,5 7 4 12 7 W 1004,5 28 0,0
21.07.2018 14:00:00 23,5 14,8 3 2 7 4 ZZO 1005,3 17 0,0
21.07.2018 13:00:00 22,3 16,8 3 2 6 4 WNW 1005,9 28 0,0
21.07.2018 12:00:00 22,6 16,2 2 1 7 4 WNW 1006,4 23 0,0
21.07.2018 11:00:00 22,7 15,8 3 1 7 4 WZW 1006,7 23 0,0
21.07.2018 10:00:00 22,2 15,5 2 1 7 4 OZO 1006,9 21 0,0
21.07.2018 09:00:00 21,0 14,9 2 1 6 3 WZW 1007,1 19 0,0
21.07.2018 08:00:00 19,1 15,0 2 1 8 4 NNW 1007,5 20 0,0
21.07.2018 07:00:00 17,0 14,1 3 2 7 4 N 1007,9 20 0,0
21.07.2018 06:00:00 15,8 14,3 4 2 8 4 ONO 1008,7 16 0,0
21.07.2018 05:00:00 14,5 13,5 1 1 8 4 NNO 1008,9 14 0,0
21.07.2018 04:00:00 15,3 13,3 4 2 9 5 O 1008,9 13 0,0
21.07.2018 03:00:00 15,7 13,4 4 2 8 5 O 1009,1 20 0,0
21.07.2018 02:00:00 15,4 12,9 2 1 5 3 O 1009,5 22 0,0
21.07.2018 01:00:00 17,0 13,3 2 1 5 3 NO 1009,5 38 0,0
21.07.2018 00:00:00 18,4 13,9 1 1 7 4 O 1009,5 50 0,0
20.07.2018 23:00:00 21,4 13,3 5 3 9 5 OZO 1009,2 49 0,0
20.07.2018 22:00:00 22,9 12,8 3 2 16 9 ZO 1009,2 50 0,0
20.07.2018 21:00:00 24,6 12,2 4 2 20 11 Z 1009,0 50 0,0
20.07.2018 20:00:00 26,3 12,0 9 5 23 12 ZZO 1008,4 50 0,0
20.07.2018 19:00:00 27,3 10,9 7 4 21 11 ZO 1008,4 46 0,0
20.07.2018 18:00:00 28,1 12,4 2 1 13 7 OZO 1008,2 30 0,0
20.07.2018 17:00:00 28,4 10,6 7 4 16 9 O 1008,4 21 0,0
20.07.2018 16:00:00 30,1 10,1 5 3 14 8 O 1008,7 34 0,0
20.07.2018 15:00:00 28,9 11,0 9 5 20 11 NO 1009,5 30 0,0
20.07.2018 14:00:00 29,1 10,7 8 4 15 8 W 1009,8 37 0,0
20.07.2018 13:00:00 28,5 11,1 4 2 15 8 NNO 1010,4 36 0,0
20.07.2018 12:00:00 26,6 10,7 4 2 11 6 WZW 1011,2 39 0,0
20.07.2018 11:00:00 25,7 12,5 5 3 13 7 W 1011,6 37 0,0
20.07.2018 10:00:00 24,2 17,0 4 2 10 6 WZW 1012,0 27 0,0
20.07.2018 09:00:00 23,2 16,3 3 1 8 4 WZW 1012,3 27 0,0
20.07.2018 08:00:00 20,5 15,9 3 2 12 6 NNO 1012,9 22 0,0
20.07.2018 07:00:00 18,4 16,0 3 2 7 4 NO 1013,3 23 0,0
20.07.2018 06:00:00 14,5 13,9 1 1 5 3 N 1014,0 26 0,0
20.07.2018 05:00:00 13,9 13,7 1 1 5 3 W 1014,2 19 0,0
20.07.2018 04:00:00 13,2 12,9 1 1 3 2 NO 1014,2 24 0,0
20.07.2018 03:00:00 13,3 13,1 2 1 5 3 WZW 1014,4 8 0,0
20.07.2018 02:00:00 14,2 13,7 2 1 5 3 W 1014,4 26 0,0
20.07.2018 01:00:00 15,4 14,4 2 1 6 3 ZW 1014,5 34 0,0
20.07.2018 00:00:00 17,2 15,2 2 1 6 4 W 1014,5 47 0,0
19.07.2018 23:00:00 17,9 15,3 3 1 5 3 WZW 1014,4 39 0,0
19.07.2018 22:00:00 19,9 15,5 1 1 6 4 W 1014,0 34 0,0
19.07.2018 21:00:00 21,7 16,4 3 1 8 4 NNO 1013,8 30 0,0
19.07.2018 20:00:00 24,3 16,8 2 1 6 3 NNW 1013,2 31 0,0
19.07.2018 19:00:00 24,4 17,9 3 2 5 3 OZO 1013,1 38 0,0
19.07.2018 18:00:00 24,2 16,7 3 2 8 5 NNW 1013,2 28 0,0
19.07.2018 17:00:00 22,2 18,2 6 3 13 7 O 1013,4 20 0,0
19.07.2018 16:00:00 21,2 18,0 5 3 16 9 O 1013,7 19 0,1
19.07.2018 15:00:00 20,1 18,2 5 3 22 12 O 1013,9 20 0,3
19.07.2018 14:00:00 20,2 16,6 11 6 26 14 ONO 1014,0 14 0,0
19.07.2018 13:00:00 26,2 14,6 8 4 19 11 W 1012,7 29 0,0
19.07.2018 12:00:00 27,0 16,0 9 5 22 12 W 1013,0 28 0,0
19.07.2018 11:00:00 26,2 15,9 8 4 19 11 W 1013,1 24 0,0
19.07.2018 10:00:00 25,5 16,4 3 2 11 6 W 1013,3 27 0,0
19.07.2018 09:00:00 21,0 16,0 5 3 12 7 W 1013,9 24 0,0
19.07.2018 08:00:00 21,2 15,5 4 2 7 4 W 1013,8 22 0,0
19.07.2018 07:00:00 19,8 16,4 4 2 10 6 ZW 1014,0 25 0,0
19.07.2018 06:00:00 17,5 16,5 4 2 11 6 WZW 1014,2 17 0,0
19.07.2018 05:00:00 16,6 16,0 4 2 9 5 N 1014,1 15 0,6
19.07.2018 04:00:00 17,3 13,0 3 2 9 5 Z 1014,4 31 0,0
19.07.2018 03:00:00 17,3 13,0 6 3 18 10 W 1014,6 32 0,0
19.07.2018 02:00:00 17,5 12,2 2 1 6 3 NO 1014,2 35 0,0
19.07.2018 01:00:00 16,9 11,8 1 1 5 3 NO 1014,4 36 0,0
19.07.2018 00:00:00 18,8 11,8 1 0 8 4 WNW 1014,1 33 0,0
18.07.2018 23:00:00 20,8 11,7 4 2 8 4 O 1013,9 24 0,0
18.07.2018 22:00:00 23,8 10,5 4 2 12 7 ZO 1013,5 50 0,0
18.07.2018 21:00:00 27,1 9,4 6 3 18 10 ZZO 1013,0 50 0,0
18.07.2018 20:00:00 28,8 8,5 9 5 28 15 ZO 1012,7 43 0,0
18.07.2018 19:00:00 30,0 8,4 10 5 26 14 Z 1012,6 42 0,0
18.07.2018 18:00:00 30,2 8,0 12 6 32 17 ZO 1012,7 36 0,0
18.07.2018 17:00:00 29,7 9,2 11 6 33 18 ZO 1012,7 36 0,0
18.07.2018 16:00:00 30,9 9,7 14 8 35 19 OZO 1012,9 41 0,0
18.07.2018 15:00:00 31,0 9,2 13 7 31 17 ZZO 1013,2 38 0,0
18.07.2018 14:00:00 31,4 10,2 13 7 35 19 OZO 1013,5 36 0,0
18.07.2018 13:00:00 29,3 11,4 10 5 34 18 ZZO 1014,3 37 0,0
18.07.2018 12:00:00 31,2 11,6 13 7 28 15 OZO 1014,3 40 0,0
18.07.2018 11:00:00 29,8 13,1 9 5 18 10 ZO 1014,9 43 0,0
18.07.2018 10:00:00 28,0 13,9 3 2 10 5 OZO 1015,6 46 0,0
18.07.2018 09:00:00 24,7 13,6 4 2 8 4 W 1016,4 31 0,0
18.07.2018 08:00:00 23,2 13,1 3 1 5 3 NNO 1016,8 43 0,0
18.07.2018 07:00:00 19,1 13,1 1 0 8 4 ZZO 1017,3 50 0,0
18.07.2018 06:00:00 16,0 12,4 3 2 8 5 NO 1017,7 46 0,0
18.07.2018 05:00:00 13,2 11,1 0 0 5 3 NNW 1018,1 50 0,0
18.07.2018 04:00:00 12,2 10,4 1 1 6 3 N - 50 0,0
18.07.2018 03:00:00 12,6 10,7 3 2 8 4 NO 1018,3 50 0,0
18.07.2018 02:00:00 16,5 11,0 4 2 8 4 O 1017,9 50 0,0
18.07.2018 01:00:00 17,8 11,4 5 3 8 5 OZO - 50 0,0
18.07.2018 00:00:00 18,4 11,7 4 2 8 4 O 1017,0 48 0,0
17.07.2018 23:00:00 19,8 12,3 3 1 9 5 O 1016,6 50 0,0
17.07.2018 22:00:00 24,4 11,4 5 3 17 9 OZO 1015,9 50 0,0
17.07.2018 21:00:00 26,7 11,6 6 3 18 10 ZO 1015,6 45 0,0
17.07.2018 20:00:00 28,6 11,2 9 5 27 15 ZZO 1015,1 50 0,0
17.07.2018 19:00:00 30,0 10,5 7 4 18 10 ZZO 1014,8 46 0,0
17.07.2018 18:00:00 29,6 10,2 9 5 26 14 ZO 1014,9 46 0,0
17.07.2018 17:00:00 32,0 9,5 6 4 21 12 ZZW 1014,7 44 0,0
17.07.2018 16:00:00 30,5 9,4 9 5 21 11 Z 1015,2 50 0,0
17.07.2018 15:00:00 29,7 9,2 11 6 23 13 ZO 1015,8 39 0,0
17.07.2018 14:00:00 31,3 9,5 9 5 26 14 OZO 1015,9 37 0,0
17.07.2018 13:00:00 30,1 9,0 8 5 24 13 ZO 1016,3 32 0,0
17.07.2018 12:00:00 30,0 9,0 6 3 18 10 Z 1016,8 33 0,0
17.07.2018 11:00:00 28,3 8,6 6 3 19 11 Z 1017,2 35 0,0
17.07.2018 10:00:00 27,3 10,1 6 4 18 10 ZZW 1017,4 34 0,0
17.07.2018 09:00:00 25,4 10,8 6 4 16 9 Z 1017,7 44 0,0
17.07.2018 08:00:00 23,4 12,4 4 2 13 7 OZO 1017,8 48 0,0
17.07.2018 07:00:00 21,3 13,2 3 2 8 4 OZO 1017,9 47 0,0

tt = temperatuur
td = dauwpunt
ff = windsnelheid
fx = windstoten
dd = windrichting
ppp = luchtdruk
vv = zicht
rr = neerslag

Weerstations in de omgeving